TimeCDT,TemperatureF,Dew PointF,Humidity,Sea Level PressureIn,VisibilityMPH,Wind Direction,Wind SpeedMPH,Gust SpeedMPH,PrecipitationIn,Events,Conditions,WindDirDegrees,DateUTC
12:15 AM,44.6,26.6,49,30.19,10.0,SSE,4.6,-,N/A,,Mostly Cloudy,160,2013-04-21 05:15:00
12:35 AM,44.6,26.6,49,30.18,10.0,ESE,5.8,-,N/A,,Mostly Cloudy,110,2013-04-21 05:35:00
12:55 AM,44.6,26.6,49,30.20,10.0,Calm,Calm,-,N/A,,Overcast,0,2013-04-21 05:55:00
1:15 AM,44.6,28.4,53,30.20,10.0,SE,9.2,-,N/A,,Mostly Cloudy,140,2013-04-21 06:15:00
1:35 AM,44.6,28.4,53,30.19,10.0,SE,9.2,-,N/A,,Light Drizzle,130,2013-04-21 06:35:00
4:15 AM,44.6,30.2,57,30.14,10.0,SE,16.1,-,N/A,,Mostly Cloudy,140,2013-04-21 09:15:00
4:35 AM,44.6,28.4,53,30.14,10.0,SE,18.4,-,N/A,,Overcast,140,2013-04-21 09:35:00
4:55 AM,44.6,28.4,53,30.14,10.0,SSE,17.3,21.9,N/A,,Overcast,150,2013-04-21 09:55:00
5:15 AM,44.6,28.4,53,30.14,10.0,SE,17.3,23.0,N/A,,Overcast,140,2013-04-21 10:15:00
5:35 AM,44.6,28.4,53,30.14,10.0,SSE,17.3,-,N/A,,Overcast,150,2013-04-21 10:35:00
5:55 AM,44.6,30.2,57,30.14,10.0,SSE,17.3,24.2,N/A,,Overcast,150,2013-04-21 10:55:00
6:15 AM,44.6,30.2,57,30.14,10.0,SE,19.6,23.0,N/A,,Overcast,140,2013-04-21 11:15:00
6:35 AM,42.8,30.2,61,30.15,10.0,SSE,15.0,-,N/A,,Overcast,150,2013-04-21 11:35:00
6:55 AM,44.6,30.2,57,30.16,10.0,SSE,15.0,-,N/A,,Overcast,150,2013-04-21 11:55:00
7:15 AM,44.6,30.2,57,30.17,10.0,SSE,8.1,-,N/A,,Overcast,150,2013-04-21 12:15:00
7:35 AM,44.6,30.2,57,30.17,10.0,SSE,12.7,-,N/A,,Scattered Clouds,160,2013-04-21 12:35:00
7:55 AM,44.6,32.0,61,30.17,10.0,SSE,11.5,-,N/A,,Clear,160,2013-04-21 12:55:00
8:15 AM,46.4,33.8,62,30.17,10.0,SSE,16.1,19.6,N/A,,Clear,150,2013-04-21 13:15:00
8:35 AM,48.2,33.8,58,30.17,10.0,South,12.7,18.4,N/A,,Clear,170,2013-04-21 13:35:00
8:55 AM,51.8,35.6,54,30.17,10.0,South,15.0,20.7,N/A,,Clear,170,2013-04-21 13:55:00
9:15 AM,51.8,35.6,54,30.17,10.0,South,18.4,25.3,N/A,,Clear,180,2013-04-21 14:15:00
9:35 AM,53.6,35.6,51,30.17,10.0,South,16.1,24.2,N/A,,Clear,180,2013-04-21 14:35:00
9:55 AM,55.4,37.4,51,30.16,10.0,South,17.3,24.2,N/A,,Scattered Clouds,180,2013-04-21 14:55:00
10:15 AM,57.2,37.4,48,30.16,10.0,South,19.6,24.2,N/A,,Scattered Clouds,180,2013-04-21 15:15:00
10:35 AM,57.2,37.4,48,30.16,10.0,South,18.4,26.5,N/A,,Clear,180,2013-04-21 15:35:00
10:55 AM,62.6,37.4,39,30.16,10.0,South,23.0,28.8,N/A,,Clear,190,2013-04-21 15:55:00
11:15 AM,64.4,37.4,37,30.15,10.0,SSW,26.5,-,N/A,,Clear,200,2013-04-21 16:15:00
11:35 AM,64.4,35.6,34,30.15,10.0,SSW,24.2,31.1,N/A,,Clear,200,2013-04-21 16:35:00
11:55 AM,66.2,33.8,30,30.14,10.0,SSW,28.8,35.7,N/A,,Clear,200,2013-04-21 16:55:00
12:15 PM,66.2,33.8,30,30.13,10.0,SW,27.6,39.1,N/A,,Clear,220,2013-04-21 17:15:00
12:35 PM,66.2,32.0,28,30.13,10.0,SSW,28.8,38.0,N/A,,Clear,210,2013-04-21 17:35:00
12:55 PM,66.2,32.0,28,30.12,10.0,SSW,23.0,32.2,N/A,,Scattered Clouds,200,2013-04-21 17:55:00
1:15 PM,68.0,30.2,24,30.11,10.0,South,28.8,35.7,N/A,,Scattered Clouds,190,2013-04-21 18:15:00
1:35 PM,68.0,30.2,24,30.10,10.0,SSW,29.9,35.7,N/A,,Clear,200,2013-04-21 18:35:00
1:55 PM,68.0,32.0,26,30.10,10.0,SSW,27.6,35.7,N/A,,Clear,200,2013-04-21 18:55:00
2:15 PM,68.0,32.0,26,30.09,10.0,SSW,27.6,36.8,N/A,,Clear,200,2013-04-21 19:15:00
2:35 PM,66.2,33.8,30,30.09,10.0,South,27.6,33.4,N/A,,Clear,190,2013-04-21 19:35:00
2:55 PM,66.2,35.6,32,30.09,10.0,South,21.9,29.9,N/A,,Scattered Clouds,190,2013-04-21 19:55:00
3:15 PM,66.2,35.6,32,30.08,10.0,SSW,24.2,31.1,N/A,,Scattered Clouds,200,2013-04-21 20:15:00
3:35 PM,66.2,35.6,32,30.08,10.0,South,23.0,31.1,N/A,,Scattered Clouds,190,2013-04-21 20:35:00
3:55 PM,66.2,35.6,32,30.07,10.0,SSW,23.0,28.8,N/A,,Scattered Clouds,200,2013-04-21 20:55:00
4:15 PM,66.2,35.6,32,30.06,10.0,South,21.9,25.3,N/A,,Clear,180,2013-04-21 21:15:00
4:35 PM,66.2,35.6,32,30.06,10.0,South,21.9,28.8,N/A,,Clear,190,2013-04-21 21:35:00
4:55 PM,66.2,37.4,35,30.06,10.0,South,19.6,23.0,N/A,,Clear,190,2013-04-21 21:55:00
5:15 PM,64.4,37.4,37,30.06,10.0,South,19.6,-,N/A,,Scattered Clouds,190,2013-04-21 22:15:00
5:35 PM,64.4,37.4,37,30.06,10.0,SSW,17.3,23.0,N/A,,Scattered Clouds,200,2013-04-21 22:35:00
5:55 PM,62.6,42.8,48,30.06,10.0,South,13.8,-,N/A,Rain,Light Rain,180,2013-04-21 22:55:00
6:15 PM,64.4,39.2,40,30.06,10.0,South,20.7,26.5,N/A,,Scattered Clouds,180,2013-04-21 23:15:00
6:35 PM,64.4,39.2,40,30.06,10.0,South,20.7,25.3,N/A,,Scattered Clouds,180,2013-04-21 23:35:00
6:55 PM,64.4,39.2,40,30.05,10.0,South,18.4,23.0,N/A,,Clear,180,2013-04-21 23:55:00
7:15 PM,64.4,39.2,40,30.06,10.0,South,17.3,24.2,N/A,,Mostly Cloudy,180,2013-04-22 00:15:00
7:35 PM,62.6,41.0,45,30.06,10.0,South,18.4,-,N/A,,Scattered Clouds,180,2013-04-22 00:35:00
7:55 PM,62.6,41.0,45,30.06,10.0,South,16.1,23.0,N/A,,Clear,170,2013-04-22 00:55:00
8:15 PM,60.8,41.0,48,30.06,10.0,South,16.1,-,N/A,,Scattered Clouds,170,2013-04-22 01:15:00
8:35 PM,59.0,42.8,55,30.06,10.0,South,13.8,-,N/A,,Scattered Clouds,170,2013-04-22 01:35:00
8:55 PM,57.2,42.8,59,30.07,10.0,South,15.0,-,N/A,,Scattered Clouds,170,2013-04-22 01:55:00
9:15 PM,57.2,41.0,55,30.08,10.0,South,15.0,-,N/A,,Scattered Clouds,170,2013-04-22 02:15:00
9:35 PM,57.2,41.0,55,30.09,10.0,South,15.0,-,N/A,,Scattered Clouds,170,2013-04-22 02:35:00
9:55 PM,57.2,39.2,51,30.09,10.0,South,17.3,21.9,N/A,,Clear,180,2013-04-22 02:55:00
10:15 PM,57.2,39.2,51,30.10,10.0,South,15.0,20.7,N/A,,Scattered Clouds,180,2013-04-22 03:15:00
10:55 PM,55.4,46.4,72,30.14,10.0,NW,19.6,26.5,N/A,Rain,Light Rain,320,2013-04-22 03:55:00
11:15 PM,51.8,46.4,82,30.15,10.0,NNW,13.8,17.3,N/A,Rain,Rain,340,2013-04-22 04:15:00
11:35 PM,51.8,46.4,82,30.15,10.0,North,6.9,-,N/A,Rain,Light Rain,360,2013-04-22 04:35:00
11:55 PM,51.8,46.4,82,30.16,10.0,NNW,6.9,-,N/A,Rain,Light Rain,330,2013-04-22 04:55:00